Tracking 35275 objects as of 9-Sep-2026
HD Live streaming from Space Station
objects crossing your sky now

COSMOS 2310

Track COSMOS 2310 now!
10-day predictions
COSMOS 2310 is classified as:


NORAD ID: 23526
Int'l Code: 1995-012A
Launch date: March 21, 1995
Source: Commonwealth of Independent States (former USSR) (CIS)
Launch site: PLESETSK MISSILE AND SPACE COMPLEX (PKMTR)
Your satellite tracking list
Your tracking list is empty




NASA's NSSDC Master Catalog

Two Line Element Set (TLE):
1 23526U 95012A   26252.06228885  .00000087  00000-0  78085-4 0  9998
2 23526  82.9420  87.0405 0023572  62.5400  99.8906 13.72340593575426
Source of the keplerian elements: AFSPC